Lid_Strength_Index
4 3 2 2 2 1 3 2 1 1 1 1 2 2 2 1 1 1 0 0 -0 -0 0 0 0 1 1 1 1 1 1 1 1 2 2 2 1 1 1 1 0 0 -0
4 4 3 3 2 2 2 2 1 1 1 1 1 1 1 1 1 1 0 0 0 0 0 0 0 0 1 1 1 1 2 2 1 3 3 5 3 2 2 1 1 1 0
5 5 4 4 4 3 2 2 1 2 1 1 1 1 1 1 1 1 1 0 0 0 1 1 0 0 1 1 1 1 2 3 2 2 3 6 7 4 2 1 1 1 1
5 4 4 4 4 4 3 2 1 1 1 1 2 2 2 3 2 1 1 1 -0 0 0 1 0 0 1 1 1 1 1 2 3 2 1 2 3 5 6 2 2 2 1
4 4 4 3 3 3 3 2 2 1 1 1 1 2 2 2 2 1 1 1 1 1 1 1 0 1 1 1 1 1 1 1 2 3 3 2 2 3 4 6 4 2 1
4 4 3 3 3 2 2 2 2 2 1 1 1 2 3 3 2 2 2 2 1 1 0 1 0 1 1 1 1 1 1 1 1 2 2 3 4 4 4 5 4 4 2
5 5 4 4 3 3 2 2 2 2 2 2 3 3 4 2 2 2 2 2 2 1 1 1 2 1 1 0 1 1 1 1 1 2 2 2 2 3 3 3 4 4 3
5 5 4 4 4 3 3 2 2 3 3 3 3 1 1 1 1 1 1 1 1 1 1 1 1 1 2 1 1 1 1 1 1 2 2 2 2 2 2 3 4 5 4
5 5 4 4 3 3 3 2 2 3 3 3 2 2 2 2 2 1 1 1 1 1 1 0 1 1 1 2 1 1 1 1 1 1 1 2 1 1 2 2 3 4 6
5 5 4 4 3 3 2 2 2 2 3 3 3 1 2 2 2 2 1 1 1 1 1 0 1 2 1 1 1 1 1 1 1 1 2 2 1 1 2 2 2 3 4
5 5 4 3 3 3 3 3 2 3 3 3 3 2 3 3 3 2 2 1 1 1 1 1 1 1 1 1 1 1 1 1 1 1 1 1 1 2 1 1 2 2 3
5 4 4 4 4 3 3 3 3 2 3 3 3 3 3 3 4 3 2 2 2 1 1 1 1 1 1 1 1 1 1 1 2 1 1 2 1 1 2 2 2 2 3
5 5 4 4 4 3 3 3 2 2 3 2 3 3 3 4 4 4 3 3 2 2 1 1 1 1 1 1 1 1 1 1 1 1 1 1 1 2 2 2 2 2 2
6 5 5 4 4 3 3 3 2 2 2 2 2 2 2 2 3 2 2 1 1 1 1 2 1 1 1 1 1 1 1 1 1 1 1 1 1 2 2 2 2 2 2
7 5 5 4 4 3 3 3 2 2 2 2 2 3 2 2 2 2 1 1 1 1 1 1 1 1 1 1 1 1 1 1 1 1 1 1 1 1 1 1 2 2 2
5 5 4 4 4 4 3 3 3 2 2 2 2 2 2 2 2 2 2 1 1 1 1 1 1 1 1 3 2 2 2 2 2 2 1 1 1 1 1 1 1 1 2
6 5 4 4 4 3 3 3 3 2 2 2 2 2 2 2 2 2 2 2 2 2 2 2 1 2 1 2 3 2 2 2 2 2 2 1 1 1 1 2 3 2 2
5 4 4 4 3 3 3 3 2 2 2 3 3 2 2 2 2 2 2 2 2 2 2 2 1 2 1 2 1 2 2 2 1 1 1 2 2 1 1 1 2 1 1
6 5 3 3 3 3 2 3 3 3 3 3 2 2 2 2 2 2 2 2 2 2 2 2 2 2 2 3 3 3 2 2 2 2 1 1 2 3 3 2 2 2 2
4 4 3 3 4 3 3 3 3 3 3 2 2 2 2 2 2 2 2 2 2 2 1 2 1 2 1 2 3 4 2 3 2 2 2 3 3 3 5 3 3 3 2
3 3 4 4 3 3 3 3 3 3 2 2 2 2 2 2 2 2 2 2 2 2 2 2 1 1 1 1 4 4 2 2 2 2 2 3 5 6 6 5 3 2 3
3 3 4 4 3 3 2 3 4 2 2 2 2 2 2 2 1 2 2 2 2 2 2 3 2 2 1 3 3 4 4 2 2 2 2 3 7 8 8 7 5 4 4
4 3 3 3 3 2 3 3 3 2 2 2 2 2 2 2 2 2 3 3 3 3 4 3 3 3 2 2 4 4 4 4 2 2 3 5 9 9 7 7 7 6 3
4 4 4 5 4 3 3 3 3 2 3 3 3 2 3 3 3 3 3 3 3 3 3 3 4 4 3 3 3 2 3 3 3 2 4 5 5 5 4 4 4 3 2
3 3 3 3 3 3 4 4 4 4 4 4 3 3 2 3 3 3 3 3 3 3 3 4 4 4 3 4 5 6 3 2 3 3 3 3 4 3 3 3 2 1 1
3 3 4 4 5 5 5 5 4 4 4 3 2 2 2 3 3 3 3 4 6 7 7 8 7 3 5 7 9 11 11 10 10 5 4 4 3 3 3 4 3 2 2